Flag for U.S.A. Weather past 2 weeks in Dayton, Ohio, U.S.A.

Now
25 °F

Clear.


Feels Like: 25 °F
Forecast: 24 / 37 °F
Wind: No wind

Location: Dayton / Wright-Patterson Air Force Base

Current Time: Dec 21, 2014 at 5:19:21 AM

Latest Report: Dec 21, 2014 at 4:58 AM


Visibility: 10 mi

Pressure: 30.33 "Hg

Humidity: 84%

Dew point: 20 °F

Location of DaytonLocation

Historic Weather in Dayton — Graph

°F

Dayton temperature yesterday

Maximum temperature yesterday: 32 °F (at 1:03 PM)
Minimum temperature yesterday: 29 °F (at 11:58 PM)
Average temperature yesterday: 30 °F

Past Weeks' High & Low Weather Summary

 TemperatureHumidityPressure
High52 °F (Dec 15, 2:58 PM)100% (Dec 15, 6:58 AM)30.66 "Hg (Dec 15, 6:58 AM)
Low19 °F (Dec 12, 7:58 AM)46% (Dec 11, 1:58 PM)29.70 "Hg (Dec 16, 5:58 AM)
Average35 °F79%30.22 "Hg
* Reported Dec 6 3:58 AM — Dec 21 3:58 AM, Dayton, Weather by CustomWeather, © 2014

Note: Actual official high and low records may vary slightly from our data, if they occured in-between our weather recording intervals... More about our weather records

Advertising

Dayton weather history for previous 24 hours

 ConditionsComfort  
Time TempWeatherWind HumidityBarometerVisibility
3:58 AM
Dec 21
29 °FOvercast.No wind73%30.34 "Hg10 mi
2:58 AM29 °FOvercast.No wind85%30.34 "Hg10 mi
1:58 AM29 °FOvercast.No wind86%30.33 "Hg10 mi
12:58 AM29 °FOvercast.No wind85%30.33 "Hg10 mi
11:58 PM
Dec 20
29 °FOvercast.No wind85%30.34 "Hg10 mi
10:58 PM29 °FOvercast.No wind82%30.32 "Hg10 mi
9:58 PM29 °FOvercast.No wind81%30.32 "Hg10 mi
8:58 PM30 °FOvercast.No wind74%30.33 "Hg10 mi
7:58 PM30 °FPassing clouds.No wind75%30.33 "Hg10 mi
6:58 PM31 °FOvercast.No wind74%30.33 "Hg10 mi
5:58 PM31 °FPassing clouds.No wind70%30.32 "Hg10 mi
4:58 PM31 °FOvercast.2 mph70%30.31 "Hg10 mi
3:58 PM31 °FOvercast.No wind70%30.29 "Hg10 mi
2:58 PM31 °FOvercast.No wind71%30.28 "Hg10 mi
1:58 PM31 °FOvercast.2 mph73%30.29 "Hg10 mi
1:03 PM32 °FOvercast.No wind69%30.27 "Hg10 mi
12:58 PM31 °FOvercast.2 mph72%30.29 "Hg10 mi
11:58 AM30 °FOvercast.1 mph75%30.31 "Hg10 mi
10:58 AM30 °FOvercast.1 mph72%30.33 "Hg10 mi
9:58 AM30 °FOvercast.3 mph78%30.33 "Hg10 mi
8:58 AM29 °FOvercast.2 mph81%30.33 "Hg10 mi
7:58 AM29 °FOvercast.3 mph82%30.32 "Hg10 mi
6:58 AM29 °FOvercast.No wind80%30.31 "Hg10 mi
5:58 AM29 °FOvercast.3 mph81%30.30 "Hg10 mi
Weather by CustomWeather, © 2014

See weather overviewHow to use our weather pages